[[{"header":{"parameterUnit":"m.s-1","parameterCategory":1,"la1":30.2991,"la2":30.254,"lo1":-89.0895,"lo2":-89.0444,"dy":0.0017,"dx":0.0017,"nx":28,"ny":28,"refTime":"2024-04-21T09:00:00:Z","depth":0,"parameterNumber":2,"parameterNumberName":"U-component_of_WINDS"},"data":[0,0,0,0,0,0,0,0,0,0,0,0,0,0,0,0,0,0,0,0,0,0,0,0,0,0,0,0,0,0,0,0,0,0,0,0,0,0,0,0,0,0,0,0,0,0,0,0,0,0,0,0,0,0,0,0,0,0,-0.3686,-0.3686,0,-0.3708,-0.3708,-0.3709,-0.3709,-0.3708,-0.3708,-0.3708,-0.3731,-0.3732,-0.3733,0,0,0,0,0,0,0,0,0,0,0,0,0,-0.3643,-0.3644,-0.3686,-0.3686,-0.3687,-0.3708,-0.3709,-0.3709,-0.3709,-0.3708,-0.3708,-0.3708,-0.3731,-0.3732,-0.3733,0,0,0,0,0,0,0,0,0,0,0,0,0,-0.3663,-0.3644,-0.3686,-0.3689,-0.369,-0.3708,-0.3709,-0.3709,-0.3709,-0.3708,-0.3708,-0.3708,-0.3731,-0.3732,-0.3733,-0.375,0,0,-0.3737,-0.3738,0,0,0,0,0,0,0,0,-0.3662,-0.3665,-0.3688,-0.3689,-0.369,-0.3705,-0.3702,-0.3723,-0.3709,-0.3702,-0.3708,-0.3707,-0.3723,-0.3725,-0.373,-0.3751,-0.3752,-0.3738,-0.3738,-0.3739,-0.3739,0,0,0,0,0,0,0,-0.3661,-0.3664,-0.3695,-0.3689,-0.3689,-0.3689,-0.3692,-0.3706,-0.3715,-0.3702,-0.3702,-0.3705,-0.3723,-0.3729,-0.3731,-0.3753,-0.3737,-0.3739,-0.374,-0.374,-0.3788,-0.3788,0,0,0,0,0,0,-0.3659,-0.3663,-0.3694,-0.3695,-0.3674,-0.369,-0.3693,-0.3701,-0.3714,-0.3716,-0.3705,-0.3705,-0.3727,-0.3729,-0.3732,-0.3752,-0.3739,-0.374,-0.3741,-0.3787,-0.3788,-0.3789,0,0,0,0,0,0,-0.3658,-0.3662,-0.3693,-0.3679,-0.3683,-0.3692,-0.37,-0.3701,-0.3707,-0.3717,-0.3718,-0.3709,-0.3727,-0.373,-0.3745,-0.3753,-0.3741,-0.3742,-0.3787,-0.3788,-0.3788,-0.3793,0,0,0,0,0,0,-0.3657,-0.3661,-0.3668,-0.3679,-0.3684,-0.3707,-0.3701,-0.3702,-0.3709,-0.3709,-0.3721,-0.3723,-0.3726,-0.3743,-0.3747,-0.3754,-0.3743,-0.3786,-0.3787,-0.3788,-0.3792,-0.3794,-0.3795,0,0,0,0,0,-0.3655,-0.3669,-0.3668,-0.3672,-0.3693,-0.3707,-0.371,-0.3714,-0.371,-0.3716,-0.3722,-0.3722,-0.3751,-0.3745,-0.3749,-0.3757,-0.3786,-0.3787,-0.3788,-0.3791,-0.3793,-0.3795,0,0,0,0,0,0,-0.3659,-0.367,-0.367,-0.3688,-0.3696,-0.3707,-0.3716,-0.3716,-0.3726,-0.3726,-0.373,-0.3733,-0.3748,-0.3754,-0.3747,-0.3773,-0.3768,-0.377,-0.3769,-0.3771,-0.3772,-0.3771,-0.3744,0,0,0,0,0,-0.3661,-0.3672,-0.3682,-0.3697,-0.3701,-0.3708,-0.3714,-0.3716,-0.3726,-0.373,-0.3737,-0.3746,-0.3757,-0.3764,-0.3775,-0.3793,-0.3795,-0.38,-0.3801,-0.3802,-0.3804,-0.3813,-0.3815,-0.3792,-0.3792,-0.3792,0,0,-0.3667,-0.3675,-0.3682,-0.3697,-0.3705,-0.3716,-0.3711,-0.3723,-0.3731,-0.3732,-0.3747,-0.3752,-0.3762,-0.3779,-0.3787,-0.3784,-0.3811,-0.3804,-0.3804,-0.3806,-0.3814,-0.3816,-0.3818,-0.3793,-0.3793,-0.3792,0,0,-0.3684,-0.3691,-0.3704,-0.371,-0.3721,-0.3725,-0.3728,-0.3738,-0.3742,-0.3757,-0.3757,-0.3767,-0.3786,-0.3793,-0.3799,-0.3817,-0.3817,-0.382,-0.3828,-0.3836,-0.3838,-0.384,-0.3846,-0.3848,-0.3822,-0.3822,-0.3822,0,-0.369,-0.3707,-0.371,-0.3722,-0.3729,-0.3729,-0.3741,-0.3748,-0.3761,-0.3766,-0.3763,-0.3786,-0.3793,-0.3811,-0.3815,-0.382,-0.3823,-0.3819,-0.3838,-0.3839,-0.3841,-0.3847,-0.3849,-0.3822,-0.3822,-0.3822,-0.3822,0,-0.3714,-0.3725,-0.3734,-0.3747,-0.3754,-0.3766,-0.3771,-0.3778,-0.3779,-0.3784,-0.3799,-0.3807,-0.3819,-0.3823,-0.3825,-0.3841,-0.3839,-0.3837,-0.3831,-0.3843,-0.3849,-0.3851,-0.3823,-0.3823,-0.3822,-0.3822,0,0,-0.3735,-0.3748,-0.3751,-0.3756,-0.3767,-0.3776,-0.3787,-0.3799,-0.3804,-0.3813,-0.3823,-0.3839,-0.3836,-0.3843,-0.3845,-0.3853,-0.3865,-0.385,-0.385,-0.3852,-0.3883,-0.3885,-0.3887,-0.3865,-0.3866,-0.3866,-0.3882,0,-0.3752,-0.3773,-0.3776,-0.3794,-0.3805,-0.3804,-0.3814,-0.3821,-0.3825,-0.3835,-0.3839,-0.385,-0.3846,-0.385,-0.3857,-0.3862,-0.3872,-0.3861,-0.3874,-0.3875,-0.3872,-0.389,-0.3892,-0.3907,-0.3884,-0.3885,-0.3885,0,-0.3776,-0.3785,-0.3804,-0.3813,-0.3817,-0.3826,-0.3836,-0.3845,-0.3853,-0.3855,-0.3862,-0.3863,-0.3875,-0.3868,-0.3884,-0.3877,-0.3882,-0.3885,-0.3886,-0.3888,-0.3881,-0.3892,-0.3912,-0.3914,-0.3888,-0.3888,-0.3888,0,-0.3789,-0.3806,-0.3819,-0.3824,-0.3834,-0.384,-0.3844,-0.3852,-0.3858,-0.3867,-0.3871,-0.3881,-0.3886,-0.3894,-0.3897,-0.3892,-0.3912,-0.3907,-0.3915,-0.3914,-0.3919,-0.3919,-0.394,-0.3923,-0.3923,-0.3922,-0.3922,0,-0.3809,-0.382,-0.3825,-0.3833,-0.3846,-0.3848,-0.3861,-0.3865,-0.3872,-0.3881,-0.3881,-0.3889,-0.3893,-0.3902,-0.3904,-0.3917,-0.3919,-0.3921,-0.3922,-0.3921,-0.3921,-0.3925,-0.3924,-0.3923,-0.3923,-0.3923,-0.3923,0,-0.3826,-0.3829,-0.3844,-0.3851,-0.3853,-0.3863,-0.3869,-0.3877,-0.388,-0.3891,-0.3894,-0.3899,-0.391,-0.3913,-0.3926,-0.3928,-0.3942,-0.3942,-0.3939,-0.3939,-0.3947,-0.3946,-0.3972,-0.3975,-0.3955,-0.3955,-0.3955,0,-0.3838,-0.3847,-0.3855,-0.3861,-0.3865,-0.3875,-0.3881,-0.3883,-0.3889,-0.3898,-0.3905,-0.3915,-0.3923,-0.3939,-0.3944,-0.3953,-0.3953,-0.3962,-0.3955,-0.3954,-0.3953,-0.3953,-0.3953,-0.3963,-0.3963,-0.3963,-0.3964,0,-0.386,-0.386,-0.3869,-0.3878,-0.3885,-0.3892,-0.3899,-0.3904,-0.3907,-0.3914,-0.3924,-0.393,-0.3942,-0.3952,-0.3961,-0.3966,-0.3965,-0.3965,-0.3968,-0.3968,-0.3966,-0.3966,-0.3943,-0.3965,-0.3965,-0.3965,-0.3965,-0.3965,-0.3875,-0.3882,-0.3889,-0.3898,-0.3903,-0.3909,-0.3917,-0.392,-0.3929,-0.3939,-0.3939,-0.395,-0.3957,-0.3969,-0.3974,-0.3982,-0.398,-0.3983,-0.3984,-0.3985,-0.3985,-0.3964,-0.3984,-0.3984,-0.3984,-0.3984,-0.3984,0,-0.3896,-0.39,-0.3908,-0.3917,-0.3924,-0.3923,-0.393,-0.3936,-0.3945,-0.3951,-0.3959,-0.397,-0.3979,-0.3984,-0.3993,-0.3998,-0.3998,-0.4001,-0.4,-0.4001,-0.3987,-0.3984,-0.4001,-0.4001,-0.4001,-0.4001,-0.4001,-0.4001,-0.3908,-0.392,-0.3922,-0.3936,-0.394,-0.395,-0.3954,-0.396,-0.3965,-0.3977,-0.3984,-0.3987,-0.3993,-0.4002,-0.401,-0.4011,-0.4014,-0.4017,-0.4018,-0.4004,-0.4003,-0.4001,-0.3998,-0.4017,-0.4017,-0.4031,-0.4032,-0.4032]},{"header":{"parameterUnit":"m.s-1","parameterCategory":1,"la1":30.2991,"la2":30.254,"lo1":-89.0895,"lo2":-89.0444,"dy":0.0017,"dx":0.0017,"nx":28,"ny":28,"refTime":"2024-04-21T09:00:00:Z","depth":0,"parameterNumber":3,"parameterNumberName":"V-component_of_WINDS"},"data":[0,0,0,0,0,0,0,0,0,0,0,0,0,0,0,0,0,0,0,0,0,0,0,0,0,0,0,0,0,0,0,0,0,0,0,0,0,0,0,0,0,0,0,0,0,0,0,0,0,0,0,0,0,0,0,0,0,0,-7.0108,-7.0109,0,-7.0183,-7.0184,-7.0185,-7.0149,-7.0147,-7.0145,-7.0143,-7.0214,-7.0218,-7.0222,0,0,0,0,0,0,0,0,0,0,0,0,0,-6.9928,-6.9932,-7.0108,-7.0109,-7.011,-7.0183,-7.0184,-7.0185,-7.0149,-7.0147,-7.0145,-7.0142,-7.0213,-7.0217,-7.0222,0,0,0,0,0,0,0,0,0,0,0,0,0,-7.0005,-6.9933,-7.0107,-7.0101,-7.0101,-7.0183,-7.0184,-7.0185,-7.015,-7.0147,-7.0144,-7.0141,-7.0212,-7.0217,-7.0222,-7.0313,0,0,-7.0239,-7.0242,0,0,0,0,0,0,0,0,-7.0001,-7.0012,-7.0101,-7.0101,-7.0102,-7.0154,-7.0147,-7.0228,-7.015,-7.0131,-7.0143,-7.014,-7.0196,-7.0203,-7.0223,-7.0317,-7.032,-7.024,-7.0243,-7.0245,-7.0247,0,0,0,0,0,0,0,-6.9995,-7.0008,-7.0137,-7.0102,-7.0103,-7.0092,-7.01,-7.0162,-7.0178,-7.0132,-7.013,-7.014,-7.0196,-7.0218,-7.0224,-7.0321,-7.024,-7.0244,-7.0248,-7.025,-7.0494,-7.0497,0,0,0,0,0,0,-6.9991,-7.0004,-7.0135,-7.014,-7.0043,-7.0098,-7.0107,-7.014,-7.0178,-7.0181,-7.0142,-7.0138,-7.021,-7.0218,-7.0227,-7.0337,-7.0245,-7.0251,-7.0254,-7.0491,-7.0495,-7.0498,0,0,0,0,0,0,-6.9987,-7.0003,-7.0132,-7.0071,-7.0087,-7.0104,-7.0142,-7.0143,-7.0165,-7.0185,-7.0187,-7.0162,-7.0208,-7.0219,-7.0293,-7.0339,-7.0253,-7.0258,-7.0487,-7.0492,-7.0497,-7.0557,0,0,0,0,0,0,-6.9982,-7.0002,-7.0038,-7.0072,-7.009,-7.0198,-7.0144,-7.0146,-7.0175,-7.017,-7.0204,-7.0207,-7.0206,-7.0285,-7.0298,-7.0345,-7.0262,-7.0483,-7.049,-7.0495,-7.0551,-7.0563,-7.0574,0,0,0,0,0,-6.9976,-7.005,-7.004,-7.0056,-7.0136,-7.0201,-7.0211,-7.0211,-7.0179,-7.0214,-7.0228,-7.0206,-7.0332,-7.0293,-7.0308,-7.0356,-7.048,-7.0488,-7.0495,-7.0546,-7.0561,-7.0573,0,0,0,0,0,0,-7.0017,-7.0054,-7.0043,-7.0131,-7.0164,-7.0195,-7.024,-7.0226,-7.0267,-7.026,-7.0256,-7.0264,-7.0341,-7.0356,-7.0312,-7.0447,-7.0401,-7.0411,-7.0434,-7.0449,-7.046,-7.0455,-7.0267,0,0,0,0,0,-7.0037,-7.0089,-7.0118,-7.0192,-7.0209,-7.0222,-7.025,-7.0248,-7.028,-7.0293,-7.0312,-7.0343,-7.0389,-7.042,-7.0463,-7.0553,-7.056,-7.0594,-7.0605,-7.0614,-7.0623,-7.0672,-7.0688,-7.0522,-7.0522,-7.0522,0,0,-7.0077,-7.0104,-7.0137,-7.0201,-7.0226,-7.0279,-7.0234,-7.0291,-7.0329,-7.0301,-7.0373,-7.0388,-7.0422,-7.0505,-7.0542,-7.0519,-7.0671,-7.0623,-7.0631,-7.0635,-7.0681,-7.0697,-7.0711,-7.0527,-7.0526,-7.0525,0,0,-7.0178,-7.0204,-7.0269,-7.0296,-7.0336,-7.0344,-7.036,-7.0394,-7.0404,-7.0476,-7.0457,-7.0501,-7.0581,-7.0607,-7.0631,-7.0744,-7.0726,-7.0758,-7.0817,-7.0865,-7.0879,-7.089,-7.0931,-7.0946,-7.0767,-7.0767,-7.0767,0,-7.0223,-7.0303,-7.0304,-7.0364,-7.0393,-7.0373,-7.0439,-7.0464,-7.0514,-7.0534,-7.0509,-7.0611,-7.0632,-7.0721,-7.0749,-7.0768,-7.0786,-7.0754,-7.0877,-7.0889,-7.0899,-7.0938,-7.0954,-7.0771,-7.0771,-7.077,-7.077,0,-7.0357,-7.0413,-7.0461,-7.0514,-7.0548,-7.0611,-7.062,-7.0654,-7.0649,-7.0659,-7.0734,-7.0759,-7.0809,-7.0829,-7.0823,-7.0918,-7.0903,-7.0877,-7.0831,-7.0919,-7.0956,-7.097,-7.0776,-7.0775,-7.0774,-7.0773,0,0,-7.0484,-7.0539,-7.0557,-7.0581,-7.0624,-7.0667,-7.0728,-7.0779,-7.0809,-7.0844,-7.0896,-7.0965,-7.0943,-7.0969,-7.0966,-7.1008,-7.1097,-7.0978,-7.0978,-7.1,-7.1204,-7.1223,-7.124,-7.1086,-7.1089,-7.1091,-7.1201,0,-7.0589,-7.0699,-7.0703,-7.0803,-7.0855,-7.0837,-7.0891,-7.0922,-7.0934,-7.0979,-7.0991,-7.1041,-7.1007,-7.1023,-7.1064,-7.1078,-7.1138,-7.107,-7.1132,-7.1135,-7.1125,-7.1259,-7.1279,-7.1382,-7.1215,-7.1218,-7.1219,0,-7.0725,-7.0769,-7.0876,-7.0913,-7.0935,-7.0983,-7.1031,-7.1074,-7.1109,-7.1115,-7.1146,-7.1137,-7.1199,-7.1152,-7.1236,-7.119,-7.1215,-7.1226,-7.123,-7.1236,-7.1182,-7.1269,-7.1415,-7.143,-7.1242,-7.124,-7.1238,0,-7.0809,-7.0894,-7.0969,-7.099,-7.1035,-7.107,-7.109,-7.1123,-7.1154,-7.1194,-7.1214,-7.1261,-7.1287,-7.1322,-7.1326,-7.1291,-7.1412,-7.1364,-7.1417,-7.1417,-7.1443,-7.1442,-7.1596,-7.146,-7.1459,-7.1459,-7.1459,0,-7.0925,-7.0991,-7.1008,-7.1054,-7.1127,-7.113,-7.1202,-7.1219,-7.1248,-7.1297,-7.1283,-7.1328,-7.133,-7.1376,-7.1379,-7.1449,-7.146,-7.1466,-7.1466,-7.1468,-7.1467,-7.1484,-7.1477,-7.1463,-7.1462,-7.1461,-7.1461,0,-7.1031,-7.1044,-7.1125,-7.1163,-7.1174,-7.1226,-7.1257,-7.1301,-7.1312,-7.1373,-7.1388,-7.1405,-7.1458,-7.1466,-7.1528,-7.153,-7.1614,-7.1606,-7.1603,-7.1602,-7.1656,-7.1651,-7.1826,-7.185,-7.1698,-7.1699,-7.1701,0,-7.1104,-7.1155,-7.1199,-7.1232,-7.1255,-7.1307,-7.1339,-7.1344,-7.1378,-7.1423,-7.1461,-7.1514,-7.1557,-7.1643,-7.166,-7.1707,-7.1701,-7.1759,-7.1707,-7.1708,-7.1702,-7.1699,-7.1705,-7.1769,-7.177,-7.1772,-7.1773,0,-7.1234,-7.1239,-7.1287,-7.1339,-7.1379,-7.1419,-7.1456,-7.1483,-7.1493,-7.1531,-7.1588,-7.1621,-7.1686,-7.1738,-7.1786,-7.1804,-7.179,-7.1789,-7.1804,-7.1806,-7.1803,-7.1806,-7.1631,-7.1785,-7.1784,-7.1783,-7.1782,-7.1782,-7.1326,-7.1371,-7.141,-7.1465,-7.1494,-7.153,-7.1574,-7.1592,-7.164,-7.1695,-7.1694,-7.1756,-7.179,-7.1853,-7.1875,-7.1923,-7.1903,-7.1925,-7.193,-7.1936,-7.1941,-7.1795,-7.1931,-7.1931,-7.193,-7.193,-7.193,0,-7.1455,-7.148,-7.1531,-7.1586,-7.1629,-7.1615,-7.1656,-7.1692,-7.1748,-7.1782,-7.1826,-7.1891,-7.1942,-7.1964,-7.2014,-7.2048,-7.2042,-7.2061,-7.2058,-7.2063,-7.1955,-7.1938,-7.2064,-7.2064,-7.2064,-7.2064,-7.2064,-7.2064,-7.1528,-7.1604,-7.1614,-7.1704,-7.1728,-7.1791,-7.1816,-7.1849,-7.1876,-7.1951,-7.1994,-7.2009,-7.2038,-7.2091,-7.2137,-7.2142,-7.2161,-7.2183,-7.2185,-7.2084,-7.207,-7.2057,-7.2041,-7.2187,-7.2187,-7.2288,-7.2289,-7.229]}]]